Aeroporto :
LOGIN :

Iscrizione | Disclaimer

   EN    FR    IT 

 










Sommario :    VFR   VFR Marginale   IFR   IFR Intensivo   IFR Molto Intensivo
Visibilità : 
Base nubi : 
>= 8 km
>= 3000ft
5 / 8 km
1000 / 3000 ft
1500m / 5 km
500 / 1000 ft
800 / 1500m
200 / 500 ft
< 800m
< 200 ft
Simboli :   Temporali  Nebbia  Neve Forte  Precipitazioni Forti  Vento > 20 kt
SIGMETs :   Varie  Temporali  Ghiacco  Turbolenza  Onda orograficha  Ceneri Vulcaniche







- Altitudine del aeroporto : 408 ft
- Codice IATA : FKB


EDSB - Karlsruhe Baden Baden

ULTIMO METAR :
  • 221220Z VRB02KT 9999 FEW033 SCT048 17/09 Q1019

METARs OBSOLETI :
  • 221150Z VRB02KT 9999 SCT033 SCT040 17/11 Q1020
  • 221120Z VRB03KT 9999 FEW032 SCT042 16/10 Q1020
  • 221050Z VRB04KT 9999 FEW027 SCT033 16/09 Q1020
  • 221020Z 24005KT 160V290 9999 FEW025 SCT031 BKN036 15/09 Q1020
  • 220950Z 23007KT 190V270 9999 FEW021 SCT037 15/10 Q1020

TAF TAF EDSB
Valido dal 22 a 12 ore il 23 a 12 ore UTC


221100Z 2212/2312 29005KT 9999 SCT040
BECMG 2217/2219 VRB03KT
Nessun NOTAM noto per questo aeroporto.



MetMap, La meteo Aeronautica in un colpo d'occhio ! - Copyright ORBIFLY Dicembre 2007 - Disclaimer

ORBIFLY MET'MAP TEAM :

Programmazione e sviluppo : Alexandra Zaïnal
Concezione e sviluppo : Baudouin d'Aumeries
Co-Programmazione e sviluppo : Marc-Olivier Méhu
Supporto tecnico e logistico : Manuel Goepfert
Aiuto per la traduzione : Arnaldo La Scala

Contatto : metmap@orbifly.com




FONTI E CREDITI :

   NOAA